Regional Weather Roundup
Issued by NWS

Home | Current Version | Previous Version | Graphics & Text | Print | Product List | Glossary On
Versions: 1 2 3 4 5 6 7 8 9 10 11 12 13 14 15 16 17 18 19 20 21 22 23 24 25 26 27 28 29 30 31 32 33 34 35 36 37 38 39 40 41 42 43 44 45 46 47 48 49 50
000
ASUS43 KOAX 211302
RWRNE

WEATHER ROUNDUP FOR NEBRASKA
NATIONAL WEATHER SERVICE OMAHA NE
700 AM CST TUE NOV 21 2017

NOTES: SATELLITE DATA IS BEING USED TO AUGMENT CLOUD COVER ABOVE
       12000 FEET.
       "FAIR" INDICATES FEW OR NO CLOUDS BELOW 12,000 FEET WITH NO
       SIGNIFICANT WEATHER AND/OR OBSTRUCTIONS TO VISIBILITY.


NEZ001>004-019>022-054>056-211400-
NEBRASKA PANHANDLE

CITY           SKY/WX    TMP DP  RH WIND       PRES   REMARKS
SCOTTSBLUFF    CLOUDY    33  24  69 NE14      30.21R WCI  23
ALLIANCE       LGT SNOW  29  28  96 N12       30.18R FOG     WCI  19
CHADRON        LGT SNOW  29  29 100 CALM      30.22R FOG
GORDON         CLOUDY    29  24  81 N14G23    30.18R WCI  18
KIMBALL        CLOUDY    34  24  68 NE14      30.15R WCI  24
SIDNEY         CLOUDY    32  25  75 N13       30.15R WCI  22
$$

NEZ057>060-069>072-079>082-211400-
SOUTHWEST NEBRASKA

CITY           SKY/WX    TMP DP  RH WIND       PRES   REMARKS
NORTH PLATTE   CLEAR     34  26  72 N16G23    30.11R WCI  24
IMPERIAL       PTCLDY    36  26  67 N23G30    30.12R WCI  24
LEXINGTON      CLOUDY    36  27  69 N15G22    30.10R WCI  27
MCCOOK         MOCLDY    41  26  55 N16G29    30.06R
OGALLALA       CLOUDY    37  28  69 N20       30.13R WCI  26
$$

NEZ005>010-023>029-035>040-094-211400-
NORTH CENTRAL NEBRASKA

CITY           SKY/WX    TMP DP  RH WIND       PRES   REMARKS
VALENTINE      CLOUDY    33  26  75 NW13      30.17R WCI  24
AINSWORTH      CLOUDY    32  27  81 NW23G30   30.14R WCI  19
BROKEN BOW     PTCLDY    34  27  75 N25G32    30.08R WCI  21
O`NEILL        CLOUDY    31  26  80 N22G32    30.11R WCI  18
ORD            MOCLDY    34  27  75 N14       30.08R WCI  25
THEDFORD       CLOUDY    33  27  81 N20G29    30.14R WCI  21
$$

NEZ041-046>049-061>064-073>077-083>087-211400-
SOUTH CENTRAL NEBRASKA

CITY           SKY/WX    TMP DP  RH WIND       PRES   REMARKS
GRAND ISLAND   CLOUDY    37  31  78 N21G29    30.07R WCI  26
AURORA         CLOUDY    37  30  75 N21G32    30.04R WCI  27
HASTINGS       CLOUDY    39  25  57 N24G35    30.04R WCI  28
HEBRON         CLOUDY    42  21  43 N13       30.02R
HOLDREGE       CLOUDY    38  25  59 N20G26    30.06R WCI  28
KEARNEY        CLOUDY    37  28  70 N22G30    30.07R WCI  26
YORK           CLOUDY    37  32  81 N25G32    30.02R WCI  26
$$

NEZ011>018-030>034-042>045-211400-
NORTHEAST NEBRASKA

CITY           SKY/WX    TMP DP  RH WIND       PRES   REMARKS
NORFOLK        CLOUDY    36  28  73 NW23      30.03R WCI  24
ALBION         CLOUDY    36  30  80 N21G26    30.04R WCI  24
BLAIR          CLOUDY    38  29  69 N14       29.97R WCI  29
COLUMBUS       CLOUDY    37  29  72 N20G25    30.02R WCI  27
FREMONT        CLOUDY    38  29  72 NW10      30.00R WCI  30
TEKAMAH        CLOUDY    40  25  55 NW16      29.99R WCI  31
WAYNE          CLOUDY    35   9  33 N26G35    30.03R WCI  23
$$

NEZ050>053-065>068-078-088>093-211400-
SOUTHEAST NEBRASKA

CITY           SKY/WX    TMP DP  RH WIND       PRES   REMARKS
LINCOLN        PTCLDY    40  27  59 N16G28    30.02R WCI  31
OMAHA EPPLEY   LGT RAIN  38  28  67 N13       29.99R WCI  30
BEATRICE       CLOUDY    43  23  46 N28G39    29.96R
FALLS CITY     CLOUDY    45  25  45 N8G18     29.95R
NEBRASKA CITY  CLOUDY    42  26  51 N18       29.96R
PLATTSMOUTH    CLOUDY    41  29  63 N15G24    29.96R
$$

NEZ044-045-051>053-067-211400-
OMAHA AREA

CITY           SKY/WX    TMP DP  RH WIND       PRES   REMARKS
OMAHA EPPLEY   LGT RAIN  38  28  67 N13       29.99R WCI  30
BLAIR          CLOUDY    38  29  69 N14       29.97R WCI  29
FREMONT        CLOUDY    38  29  72 NW10      30.00R WCI  30
MILLARD        CLOUDY    41  30  65 NW10G17   29.99R
OFFUTT AFB     LGT RAIN  39  27  60 N16       29.97R WCI  30
PLATTSMOUTH    CLOUDY    41  29  63 N15G24    29.96R
WAHOO          CLOUDY    38  29  71 N15       30.00R WCI  29
$$



USA.gov is the U.S. government's official web portal to all federal, state and local government web resources and services.